Location: Cazavet
(43.0017°N, 1.0431°E)
Time: 23:15:16
(UTC+00:00)

Cosmos 2181 Rocket - Pass Details

Date: 18 January 2026
Orbit: 952 x 1013 km, 82.9° (Epoch: 13 February)

Event Time Altitude Azimuth Distance (km) Brightness Sun altitude
Rises 04:47:53 0° 352° (N) 3,726 6.9 -28.0°
Reaches altitude 10° 04:50:24 10° 352° (N) 2,780 6.3 -27.5°
Maximum altitude 04:56:50 89° 79° (E) 1,015 4.0 -26.3°
Drops below altitude 10° 05:03:16 10° 174° (S) 2,785 6.5 -25.1°
Sets 05:05:47 0° 174° (S) 3,732 7.2 -24.7°
